QPF
0.09 0.11 0.16 0.20 0.17 0.12 0.11 0.12 0.09 0.10 0.09 0.07 0.06 0.05 0.04 0.03 0.04 0.03 0.03 0.02 0.02 0.02 0.03 0.03 0.04 0.04 0.03 0.03 0.03 0.03 0.04 0.04 0.05 0.04 0.03 0.03 0.04 0.05 0.05 0.05 0.05 0.05 0.05
0.07 0.08 0.11 0.15 0.14 0.11 0.10 0.09 0.10 0.11 0.11 0.10 0.08 0.06 0.06 0.06 0.05 0.03 0.04 0.05 0.03 0.02 0.03 0.03 0.04 0.05 0.03 0.03 0.03 0.04 0.05 0.05 0.07 0.09 0.09 0.08 0.08 0.07 0.06 0.06 0.05 0.04 0.04
0.09 0.11 0.12 0.13 0.14 0.12 0.15 0.14 0.11 0.12 0.10 0.10 0.13 0.11 0.08 0.07 0.04 0.05 0.05 0.05 0.04 0.02 0.02 0.02 0.02 0.04 0.05 0.04 0.04 0.04 0.05 0.04 0.05 0.08 0.10 0.13 0.14 0.12 0.07 0.05 0.05 0.05 0.05
0.13 0.18 0.16 0.14 0.13 0.13 0.15 0.18 0.14 0.14 0.13 0.11 0.11 0.08 0.07 0.07 0.05 0.04 0.04 0.05 0.06 0.05 0.04 0.03 0.02 0.03 0.03 0.04 0.05 0.06 0.05 0.04 0.04 0.05 0.06 0.05 0.06 0.07 0.06 0.05 0.05 0.06 0.07
0.13 0.15 0.12 0.11 0.11 0.14 0.15 0.14 0.16 0.19 0.15 0.11 0.08 0.08 0.07 0.07 0.07 0.06 0.06 0.06 0.06 0.06 0.05 0.04 0.04 0.03 0.03 0.05 0.06 0.07 0.07 0.06 0.06 0.06 0.05 0.04 0.04 0.06 0.06 0.07 0.08 0.08 0.07
0.10 0.11 0.09 0.09 0.08 0.10 0.11 0.10 0.14 0.15 0.11 0.09 0.05 0.08 0.08 0.06 0.07 0.06 0.05 0.06 0.07 0.05 0.06 0.07 0.06 0.05 0.04 0.05 0.05 0.06 0.08 0.08 0.07 0.06 0.06 0.06 0.06 0.07 0.07 0.06 0.07 0.08 0.07
0.08 0.10 0.08 0.08 0.08 0.10 0.10 0.08 0.11 0.12 0.10 0.08 0.08 0.09 0.08 0.07 0.05 0.05 0.04 0.07 0.07 0.06 0.08 0.10 0.10 0.08 0.07 0.04 0.04 0.05 0.08 0.10 0.08 0.07 0.07 0.06 0.06 0.07 0.07 0.07 0.08 0.07 0.06
0.05 0.06 0.06 0.06 0.07 0.08 0.07 0.06 0.09 0.11 0.09 0.08 0.09 0.10 0.09 0.10 0.06 0.03 0.04 0.05 0.06 0.06 0.05 0.06 0.07 0.09 0.09 0.08 0.06 0.05 0.07 0.08 0.07 0.09 0.10 0.07 0.07 0.09 0.10 0.10 0.09 0.08 0.07
0.02 0.04 0.05 0.05 0.05 0.04 0.05 0.05 0.07 0.09 0.09 0.08 0.07 0.10 0.12 0.11 0.08 0.05 0.04 0.03 0.03 0.04 0.04 0.04 0.04 0.04 0.06 0.10 0.10 0.06 0.05 0.06 0.07 0.08 0.09 0.08 0.08 0.08 0.09 0.09 0.10 0.10 0.10
0.01 0.02 0.04 0.06 0.06 0.06 0.07 0.04 0.06 0.07 0.07 0.07 0.07 0.06 0.07 0.09 0.10 0.08 0.06 0.04 0.03 0.03 0.03 0.02 0.02 0.04 0.05 0.09 0.11 0.07 0.05 0.06 0.07 0.10 0.11 0.09 0.08 0.09 0.09 0.10 0.11 0.12 0.13
0.02 0.01 0.03 0.05 0.06 0.05 0.05 0.04 0.04 0.05 0.06 0.07 0.07 0.07 0.06 0.06 0.07 0.08 0.07 0.07 0.06 0.04 0.02 0.02 0.02 0.03 0.06 0.08 0.10 0.07 0.08 0.07 0.11 0.14 0.13 0.11 0.11 0.10 0.10 0.10 0.10 0.11 0.13
0.03 0.02 0.03 0.04 0.03 0.04 0.04 0.03 0.03 0.04 0.05 0.05 0.06 0.06 0.06 0.06 0.07 0.07 0.07 0.06 0.06 0.04 0.02 0.02 0.02 0.02 0.03 0.05 0.06 0.06 0.09 0.10 0.13 0.15 0.16 0.15 0.14 0.16 0.15 0.16 0.16 0.15 0.15
0.02 0.02 0.02 0.03 0.04 0.04 0.03 0.03 0.03 0.03 0.03 0.03 0.04 0.04 0.03 0.04 0.05 0.06 0.06 0.05 0.04 0.04 0.03 0.03 0.03 0.03 0.03 0.05 0.08 0.10 0.11 0.10 0.09 0.11 0.14 0.13 0.15 0.21 0.22 0.25 0.28 0.25 0.22
0.03 0.02 0.03 0.02 0.02 0.02 0.02 0.03 0.02 0.03 0.03 0.02 0.02 0.04 0.03 0.03 0.04 0.04 0.05 0.06 0.06 0.05 0.05 0.05 0.04 0.03 0.03 0.05 0.10 0.11 0.08 0.08 0.08 0.09 0.09 0.07 0.08 0.10 0.13 0.15 0.16 0.16 0.17
0.02 0.02 0.01 0.01 0.01 0.01 0.02 0.03 0.02 0.03 0.03 0.03 0.03 0.04 0.05 0.04 0.03 0.03 0.05 0.05 0.07 0.08 0.07 0.07 0.07 0.06 0.05 0.07 0.10 0.09 0.09 0.07 0.07 0.06 0.05 0.05 0.06 0.07 0.07 0.08 0.08 0.08 0.08
0.02 0.02 0.01 0.01 0.02 0.01 0.02 0.03 0.02 0.02 0.03 0.04 0.04 0.05 0.05 0.03 0.02 0.03 0.03 0.04 0.06 0.09 0.10 0.09 0.09 0.08 0.06 0.08 0.09 0.08 0.10 0.09 0.06 0.05 0.05 0.04 0.03 0.03 0.03 0.04 0.05 0.05 0.04
0.02 0.02 0.02 0.02 0.02 0.02 0.03 0.03 0.02 0.03 0.03 0.05 0.04 0.05 0.05 0.05 0.04 0.04 0.04 0.05 0.06 0.08 0.09 0.08 0.08 0.08 0.07 0.08 0.07 0.08 0.08 0.07 0.05 0.04 0.04 0.03 0.02 0.03 0.03 0.03 0.04 0.04 0.03
0.03 0.03 0.03 0.03 0.02 0.02 0.03 0.03 0.03 0.05 0.05 0.05 0.05 0.06 0.05 0.06 0.06 0.04 0.04 0.06 0.06 0.07 0.08 0.08 0.07 0.06 0.06 0.07 0.06 0.07 0.08 0.08 0.07 0.07 0.06 0.05 0.03 0.03 0.03 0.03 0.04 0.04 0.04
0.04 0.04 0.03 0.03 0.03 0.03 0.03 0.03 0.04 0.06 0.06 0.06 0.05 0.05 0.06 0.06 0.05 0.05 0.06 0.06 0.05 0.05 0.07 0.07 0.05 0.05 0.04 0.04 0.06 0.05 0.09 0.10 0.09 0.08 0.07 0.06 0.05 0.04 0.04 0.04 0.04 0.05 0.06
0.05 0.04 0.04 0.03 0.03 0.03 0.03 0.03 0.03 0.04 0.05 0.04 0.04 0.03 0.04 0.04 0.04 0.05 0.06 0.06 0.06 0.06 0.05 0.05 0.03 0.03 0.04 0.04 0.05 0.06 0.09 0.11 0.10 0.07 0.07 0.06 0.05 0.04 0.04 0.04 0.04 0.05 0.07
0.03 0.03 0.03 0.03 0.03 0.03 0.02 0.02 0.03 0.03 0.04 0.03 0.03 0.02 0.02 0.02 0.02 0.03 0.03 0.04 0.05 0.04 0.03 0.03 0.02 0.03 0.04 0.05 0.05 0.06 0.07 0.09 0.09 0.09 0.09 0.08 0.06 0.05 0.05 0.05 0.05 0.05 0.06
0.02 0.03 0.03 0.04 0.04 0.02 0.02 0.02 0.02 0.02 0.02 0.02 0.02 0.02 0.02 0.01 0.01 0.02 0.03 0.03 0.04 0.04 0.04 0.04 0.03 0.04 0.04 0.05 0.06 0.06 0.07 0.09 0.09 0.10 0.10 0.08 0.07 0.06 0.05 0.04 0.05 0.06 0.06
0.04 0.03 0.03 0.04 0.04 0.02 0.02 0.02 0.02 0.02 0.03 0.02 0.02 0.03 0.03 0.01 0.01 0.02 0.02 0.02 0.03 0.03 0.03 0.03 0.03 0.03 0.02 0.04 0.05 0.06 0.08 0.09 0.10 0.11 0.09 0.08 0.07 0.06 0.05 0.05 0.04 0.05 0.05
0.04 0.04 0.04 0.04 0.04 0.02 0.03 0.03 0.02 0.02 0.02 0.02 0.03 0.03 0.02 0.02 0.02 0.02 0.02 0.02 0.02 0.02 0.02 0.02 0.02 0.02 0.02 0.03 0.04 0.05 0.06 0.07 0.07 0.07 0.06 0.06 0.05 0.05 0.04 0.04 0.04 0.04 0.04
0.04 0.04 0.04 0.04 0.03 0.02 0.04 0.04 0.02 0.02 0.02 0.01 0.01 0.02 0.02 0.02 0.04 0.04 0.04 0.04 0.03 0.03 0.02 0.01 0.01 0.01 0.02 0.02 0.02 0.03 0.04 0.05 0.05 0.05 0.06 0.06 0.06 0.05 0.05 0.04 0.03 0.03 0.03
0.03 0.03 0.03 0.03 0.02 0.02 0.03 0.03 0.02 0.02 0.03 0.01 0.01 0.01 0.01 0.01 0.02 0.03 0.04 0.04 0.03 0.03 0.03 0.02 0.01 0.01 0.01 0.02 0.02 0.02 0.03 0.04 0.04 0.04 0.05 0.05 0.05 0.05 0.05 0.05 0.04 0.03 0.03
MSLP
1013.91 1014.21 1014.42 1014.55 1014.65 1014.74 1014.84 1014.95 1015.06 1015.14 1015.18 1015.17 1015.13 1015.09 1015.12 1015.25 1015.52 1015.95 1016.50 1017.13 1017.77 1018.34 1018.79 1019.09 1019.23 1019.25 1019.19 1019.12 1019.09 1019.13 1019.26 1019.45 1019.68 1019.93 1020.17 1020.39 1020.58 1020.75 1020.90 1021.06 1021.22 1021.39 1021.55
1013.87 1014.17 1014.37 1014.52 1014.63 1014.74 1014.86 1015.00 1015.13 1015.23 1015.29 1015.29 1015.25 1015.19 1015.18 1015.26 1015.46 1015.82 1016.29 1016.86 1017.46 1018.02 1018.49 1018.83 1019.03 1019.11 1019.11 1019.08 1019.07 1019.11 1019.21 1019.37 1019.57 1019.80 1020.03 1020.25 1020.45 1020.63 1020.81 1020.99 1021.17 1021.34 1021.52
1013.83 1014.13 1014.35 1014.53 1014.68 1014.82 1014.99 1015.16 1015.32 1015.46 1015.53 1015.54 1015.50 1015.43 1015.37 1015.37 1015.48 1015.72 1016.08 1016.54 1017.06 1017.57 1018.02 1018.39 1018.64 1018.80 1018.88 1018.92 1018.96 1019.02 1019.13 1019.27 1019.45 1019.64 1019.85 1020.05 1020.25 1020.44 1020.63 1020.83 1021.03 1021.23 1021.43
1013.81 1014.11 1014.35 1014.56 1014.76 1014.96 1015.17 1015.39 1015.59 1015.76 1015.86 1015.89 1015.85 1015.76 1015.65 1015.58 1015.58 1015.68 1015.90 1016.21 1016.60 1017.02 1017.42 1017.78 1018.08 1018.31 1018.47 1018.60 1018.72 1018.83 1018.96 1019.10 1019.26 1019.44 1019.61 1019.79 1019.97 1020.15 1020.36 1020.57 1020.79 1021.02 1021.25
1013.80 1014.09 1014.35 1014.59 1014.83 1015.08 1015.34 1015.60 1015.85 1016.06 1016.20 1016.26 1016.23 1016.14 1016.00 1015.85 1015.75 1015.71 1015.77 1015.91 1016.14 1016.43 1016.75 1017.07 1017.37 1017.65 1017.89 1018.11 1018.31 1018.49 1018.66 1018.83 1018.99 1019.14 1019.29 1019.44 1019.60 1019.78 1019.98 1020.20 1020.45 1020.71 1020.97
1013.76 1014.03 1014.30 1014.57 1014.84 1015.13 1015.43 1015.74 1016.03 1016.28 1016.46 1016.56 1016.57 1016.49 1016.35 1016.16 1015.97 1015.81 1015.71 1015.69 1015.74 1015.87 1016.07 1016.31 1016.58 1016.87 1017.16 1017.45 1017.72 1017.98 1018.21 1018.41 1018.58 1018.73 1018.86 1019.00 1019.14 1019.31 1019.50 1019.73 1020.00 1020.28 1020.58
1013.67 1013.91 1014.17 1014.45 1014.75 1015.07 1015.40 1015.74 1016.06 1016.35 1016.58 1016.73 1016.80 1016.76 1016.64 1016.45 1016.22 1015.97 1015.74 1015.56 1015.44 1015.41 1015.45 1015.58 1015.77 1016.03 1016.33 1016.66 1016.98 1017.30 1017.58 1017.82 1018.02 1018.19 1018.33 1018.45 1018.59 1018.75 1018.95 1019.19 1019.46 1019.76 1020.07
1013.49 1013.71 1013.96 1014.24 1014.55 1014.88 1015.24 1015.59 1015.94 1016.26 1016.53 1016.74 1016.86 1016.89 1016.83 1016.67 1016.44 1016.15 1015.84 1015.53 1015.27 1015.07 1014.95 1014.94 1015.02 1015.21 1015.47 1015.79 1016.13 1016.48 1016.80 1017.09 1017.33 1017.52 1017.68 1017.82 1017.97 1018.14 1018.34 1018.58 1018.86 1019.17 1019.50
1013.24 1013.43 1013.67 1013.95 1014.27 1014.61 1014.97 1015.32 1015.67 1016.01 1016.31 1016.56 1016.74 1016.85 1016.86 1016.77 1016.58 1016.30 1015.96 1015.58 1015.20 1014.87 1014.60 1014.43 1014.38 1014.45 1014.63 1014.90 1015.22 1015.57 1015.91 1016.23 1016.51 1016.74 1016.93 1017.11 1017.29 1017.48 1017.70 1017.96 1018.24 1018.56 1018.88
1012.91 1013.09 1013.34 1013.62 1013.95 1014.29 1014.64 1014.98 1015.31 1015.64 1015.94 1016.21 1016.45 1016.62 1016.72 1016.72 1016.60 1016.38 1016.05 1015.65 1015.21 1014.77 1014.38 1014.07 1013.88 1013.81 1013.88 1014.05 1014.31 1014.63 1014.97 1015.30 1015.61 1015.88 1016.12 1016.35 1016.57 1016.80 1017.05 1017.32 1017.62 1017.93 1018.25
1012.54 1012.73 1012.99 1013.29 1013.62 1013.96 1014.29 1014.60 1014.90 1015.19 1015.47 1015.74 1016.00 1016.22 1016.39 1016.48 1016.46 1016.32 1016.05 1015.68 1015.22 1014.73 1014.25 1013.83 1013.50 1013.29 1013.23 1013.29 1013.46 1013.71 1014.02 1014.34 1014.67 1014.98 1015.28 1015.56 1015.83 1016.10 1016.38 1016.68 1016.99 1017.31 1017.61
1012.14 1012.36 1012.64 1012.97 1013.31 1013.64 1013.95 1014.22 1014.47 1014.70 1014.93 1015.17 1015.43 1015.68 1015.90 1016.07 1016.14 1016.10 1015.92 1015.61 1015.19 1014.69 1014.16 1013.66 1013.22 1012.89 1012.69 1012.63 1012.70 1012.87 1013.12 1013.43 1013.76 1014.09 1014.43 1014.75 1015.07 1015.38 1015.70 1016.02 1016.33 1016.65 1016.95
1011.72 1011.97 1012.28 1012.63 1012.98 1013.31 1013.60 1013.84 1014.03 1014.20 1014.37 1014.56 1014.78 1015.03 1015.28 1015.51 1015.67 1015.72 1015.65 1015.42 1015.07 1014.61 1014.07 1013.53 1013.02 1012.59 1012.28 1012.11 1012.07 1012.15 1012.34 1012.60 1012.92 1013.26 1013.61 1013.97 1014.31 1014.65 1014.98 1015.30 1015.61 1015.91 1016.20
1011.26 1011.53 1011.87 1012.24 1012.61 1012.95 1013.22 1013.43 1013.58 1013.69 1013.79 1013.93 1014.11 1014.34 1014.60 1014.86 1015.09 1015.23 1015.25 1015.12 1014.85 1014.45 1013.96 1013.41 1012.87 1012.39 1012.00 1011.73 1011.59 1011.59 1011.71 1011.92 1012.20 1012.53 1012.87 1013.22 1013.57 1013.90 1014.21 1014.51 1014.79 1015.07 1015.33
1010.74 1011.04 1011.39 1011.79 1012.17 1012.52 1012.79 1012.98 1013.10 1013.18 1013.24 1013.32 1013.46 1013.66 1013.91 1014.20 1014.46 1014.67 1014.78 1014.75 1014.57 1014.25 1013.82 1013.31 1012.78 1012.27 1011.84 1011.51 1011.31 1011.23 1011.28 1011.44 1011.67 1011.95 1012.26 1012.57 1012.87 1013.16 1013.41 1013.66 1013.88 1014.10 1014.33
1010.18 1010.47 1010.84 1011.24 1011.64 1012.00 1012.29 1012.49 1012.61 1012.67 1012.71 1012.77 1012.88 1013.06 1013.30 1013.59 1013.88 1014.13 1014.30 1014.35 1014.26 1014.03 1013.68 1013.23 1012.74 1012.25 1011.81 1011.46 1011.22 1011.10 1011.09 1011.19 1011.36 1011.58 1011.82 1012.06 1012.29 1012.48 1012.65 1012.79 1012.93 1013.07 1013.23
1009.56 1009.85 1010.21 1010.62 1011.03 1011.42 1011.73 1011.96 1012.11 1012.19 1012.24 1012.31 1012.41 1012.58 1012.82 1013.10 1013.40 1013.68 1013.89 1014.01 1013.99 1013.84 1013.57 1013.20 1012.77 1012.33 1011.92 1011.58 1011.33 1011.19 1011.15 1011.19 1011.31 1011.46 1011.61 1011.76 1011.87 1011.95 1011.99 1012.01 1012.02 1012.06 1012.14
1008.92 1009.19 1009.55 1009.96 1010.39 1010.79 1011.14 1011.41 1011.61 1011.73 1011.83 1011.92 1012.05 1012.22 1012.46 1012.74 1013.05 1013.34 1013.58 1013.73 1013.77 1013.70 1013.50 1013.22 1012.87 1012.50 1012.15 1011.85 1011.62 1011.48 1011.42 1011.44 1011.50 1011.58 1011.65 1011.69 1011.68 1011.63 1011.53 1011.40 1011.29 1011.20 1011.19
1008.28 1008.55 1008.90 1009.31 1009.75 1010.17 1010.55 1010.87 1011.12 1011.31 1011.46 1011.60 1011.76 1011.97 1012.21 1012.50 1012.80 1013.10 1013.35 1013.53 1013.61 1013.59 1013.47 1013.27 1013.00 1012.72 1012.44 1012.20 1012.02 1011.91 1011.86 1011.86 1011.89 1011.91 1011.91 1011.85 1011.74 1011.56 1011.34 1011.09 1010.84 1010.65 1010.54
1007.68 1007.95 1008.30 1008.71 1009.15 1009.59 1009.99 1010.35 1010.65 1010.89 1011.10 1011.30 1011.50 1011.74 1012.00 1012.30 1012.61 1012.90 1013.16 1013.36 1013.47 1013.50 1013.44 1013.31 1013.13 1012.93 1012.74 1012.57 1012.45 1012.38 1012.36 1012.37 1012.39 1012.38 1012.33 1012.22 1012.03 1011.77 1011.45 1011.10 1010.77 1010.49 1010.31
1007.10 1007.40 1007.76 1008.17 1008.60 1009.04 1009.46 1009.83 1010.16 1010.45 1010.70 1010.95 1011.20 1011.47 1011.76 1012.07 1012.38 1012.69 1012.95 1013.16 1013.30 1013.37 1013.36 1013.30 1013.19 1013.07 1012.96 1012.87 1012.82 1012.81 1012.82 1012.86 1012.89 1012.89 1012.83 1012.70 1012.49 1012.20 1011.84 1011.46 1011.08 1010.76 1010.55
1006.55 1006.88 1007.25 1007.66 1008.09 1008.51 1008.91 1009.29 1009.62 1009.93 1010.22 1010.50 1010.79 1011.09 1011.41 1011.74 1012.06 1012.37 1012.65 1012.87 1013.03 1013.13 1013.17 1013.17 1013.13 1013.08 1013.04 1013.02 1013.03 1013.08 1013.14 1013.22 1013.29 1013.32 1013.29 1013.19 1013.01 1012.75 1012.43 1012.07 1011.72 1011.41 1011.21
1005.98 1006.34 1006.73 1007.14 1007.55 1007.95 1008.33 1008.68 1009.01 1009.32 1009.61 1009.92 1010.23 1010.56 1010.91 1011.26 1011.61 1011.93 1012.22 1012.46 1012.64 1012.77 1012.84 1012.88 1012.90 1012.90 1012.92 1012.96 1013.02 1013.12 1013.24 1013.37 1013.49 1013.57 1013.61 1013.58 1013.48 1013.31 1013.08 1012.81 1012.54 1012.31 1012.17
1005.35 1005.74 1006.14 1006.55 1006.94 1007.31 1007.66 1007.98 1008.29 1008.58 1008.88 1009.20 1009.53 1009.89 1010.26 1010.64 1011.01 1011.35 1011.66 1011.91 1012.11 1012.26 1012.37 1012.44 1012.49 1012.53 1012.59 1012.66 1012.77 1012.91 1013.07 1013.25 1013.42 1013.58 1013.70 1013.78 1013.79 1013.75 1013.65 1013.52 1013.38 1013.27 1013.23
1004.64 1005.04 1005.45 1005.85 1006.22 1006.57 1006.88 1007.18 1007.46 1007.75 1008.05 1008.38 1008.74 1009.13 1009.53 1009.93 1010.32 1010.69 1011.00 1011.27 1011.49 1011.65 1011.77 1011.85 1011.92 1011.99 1012.07 1012.17 1012.30 1012.46 1012.66 1012.87 1013.10 1013.33 1013.54 1013.72 1013.86 1013.96 1014.02 1014.05 1014.06 1014.09 1014.16
1003.84 1004.24 1004.65 1005.04 1005.39 1005.72 1006.02 1006.30 1006.58 1006.88 1007.19 1007.55 1007.93 1008.34 1008.78 1009.21 1009.62 1009.99 1010.32 1010.59 1010.81 1010.97 1011.09 1011.18 1011.25 1011.33 1011.41 1011.52 1011.67 1011.85 1012.06 1012.31 1012.58 1012.86 1013.15 1013.42 1013.68 1013.91 1014.11 1014.28 1014.45 1014.61 1014.80
Thickness
5773 5772 5771 5770 5769 5769 5768 5767 5766 5766 5766 5767 5767 5767 5767 5766 5764 5763 5760 5758 5756 5754 5753 5751 5749 5747 5745 5744 5742 5741 5739 5737 5735 5734 5733 5731 5730 5728 5726 5725 5723 5721 5720
5772 5771 5770 5770 5769 5769 5768 5767 5766 5765 5765 5765 5765 5766 5766 5766 5765 5763 5760 5758 5756 5755 5753 5752 5750 5748 5746 5745 5743 5741 5739 5738 5736 5734 5733 5732 5730 5728 5727 5725 5723 5722 5720
5771 5770 5770 5769 5769 5768 5767 5766 5766 5765 5764 5764 5764 5764 5765 5765 5764 5763 5760 5758 5756 5755 5753 5752 5750 5749 5747 5745 5744 5742 5740 5738 5737 5735 5733 5732 5730 5729 5727 5725 5723 5722 5720
5771 5770 5769 5768 5768 5768 5767 5765 5765 5763 5762 5762 5761 5763 5764 5764 5763 5762 5761 5759 5757 5756 5754 5752 5751 5749 5748 5746 5745 5743 5741 5739 5737 5735 5734 5732 5731 5729 5727 5726 5724 5722 5720
5772 5770 5769 5769 5769 5769 5768 5767 5764 5762 5760 5760 5761 5762 5763 5763 5763 5763 5761 5760 5759 5757 5756 5754 5752 5750 5749 5747 5746 5744 5742 5740 5738 5736 5734 5733 5731 5730 5728 5726 5724 5722 5720
5773 5771 5770 5769 5769 5768 5767 5765 5763 5762 5761 5761 5762 5762 5763 5763 5763 5762 5761 5761 5760 5758 5757 5755 5753 5751 5750 5748 5746 5744 5742 5741 5739 5737 5735 5733 5732 5730 5728 5726 5724 5722 5720
5774 5772 5771 5770 5769 5767 5766 5765 5763 5761 5761 5762 5758 5756 5759 5763 5762 5761 5761 5760 5760 5759 5757 5756 5754 5753 5751 5749 5747 5745 5743 5742 5740 5738 5736 5734 5733 5731 5729 5727 5725 5723 5720
5775 5774 5771 5770 5769 5767 5766 5765 5763 5761 5761 5763 5758 5752 5748 5751 5757 5762 5760 5759 5758 5758 5757 5756 5755 5754 5752 5751 5748 5746 5744 5743 5741 5739 5737 5735 5733 5731 5729 5727 5725 5723 5720
5777 5775 5773 5771 5770 5769 5766 5766 5764 5762 5759 5762 5763 5756 5747 5743 5748 5755 5757 5758 5757 5756 5756 5756 5755 5754 5753 5752 5750 5747 5745 5743 5741 5739 5737 5735 5733 5731 5729 5727 5725 5722 5720
5778 5776 5774 5772 5770 5769 5767 5766 5766 5765 5762 5759 5761 5762 5759 5755 5747 5743 5750 5754 5755 5754 5754 5755 5755 5754 5753 5752 5750 5748 5746 5743 5741 5739 5736 5734 5732 5730 5728 5726 5724 5722 5720
5780 5778 5776 5773 5771 5769 5768 5767 5766 5765 5764 5761 5759 5760 5759 5758 5755 5746 5742 5746 5750 5752 5753 5753 5753 5752 5752 5751 5749 5747 5746 5743 5741 5738 5736 5733 5731 5729 5727 5725 5723 5721 5719
5780 5779 5777 5774 5772 5770 5768 5767 5766 5765 5764 5762 5761 5760 5756 5754 5752 5749 5744 5743 5744 5748 5751 5752 5752 5751 5750 5749 5747 5746 5744 5741 5738 5736 5734 5732 5730 5728 5725 5723 5721 5719 5717
5779 5778 5777 5775 5773 5771 5769 5767 5766 5765 5764 5762 5760 5759 5759 5757 5756 5753 5747 5743 5743 5745 5747 5749 5749 5749 5748 5746 5744 5743 5740 5738 5736 5733 5731 5729 5727 5725 5723 5721 5719 5717 5715
5782 5780 5777 5775 5773 5771 5770 5768 5766 5765 5763 5762 5761 5759 5758 5758 5757 5754 5750 5744 5738 5738 5740 5742 5745 5746 5744 5743 5740 5738 5735 5734 5732 5730 5727 5725 5723 5721 5719 5717 5715 5713 5711
5783 5781 5778 5775 5773 5771 5769 5768 5765 5764 5762 5761 5759 5758 5756 5756 5756 5755 5753 5749 5740 5732 5732 5736 5738 5741 5740 5738 5736 5733 5731 5729 5727 5725 5723 5721 5719 5717 5714 5712 5711 5709 5707
5783 5780 5778 5775 5772 5770 5768 5766 5764 5763 5761 5759 5757 5755 5754 5754 5753 5753 5751 5749 5746 5738 5731 5734 5734 5735 5735 5733 5731 5729 5727 5724 5722 5720 5718 5716 5714 5712 5710 5708 5707 5705 5702
5781 5778 5776 5773 5770 5768 5766 5764 5762 5761 5758 5756 5755 5753 5750 5750 5749 5749 5748 5746 5744 5740 5731 5731 5731 5730 5729 5727 5725 5723 5722 5719 5716 5714 5712 5711 5709 5707 5706 5704 5702 5700 5698
5780 5777 5774 5771 5769 5767 5765 5762 5759 5759 5756 5753 5752 5750 5748 5748 5746 5745 5743 5741 5740 5738 5732 5726 5725 5724 5723 5722 5720 5718 5717 5714 5711 5708 5707 5705 5703 5702 5700 5699 5697 5695 5692
5778 5775 5772 5769 5766 5765 5762 5760 5758 5757 5755 5752 5750 5747 5746 5744 5742 5741 5740 5738 5737 5735 5732 5725 5721 5721 5719 5717 5715 5713 5711 5708 5706 5704 5702 5700 5698 5696 5695 5693 5691 5688 5686
5776 5773 5770 5767 5765 5763 5760 5758 5757 5755 5753 5751 5749 5747 5744 5742 5739 5738 5737 5735 5733 5729 5727 5722 5718 5716 5714 5713 5710 5706 5703 5702 5700 5699 5697 5694 5692 5690 5688 5686 5684 5682 5680
5775 5771 5768 5765 5763 5761 5758 5756 5754 5752 5750 5747 5746 5744 5742 5740 5737 5735 5734 5731 5728 5725 5721 5717 5713 5711 5708 5706 5703 5702 5698 5696 5695 5693 5691 5689 5687 5684 5682 5680 5677 5676 5674
5771 5768 5765 5762 5759 5758 5755 5752 5750 5749 5747 5744 5741 5741 5739 5737 5735 5732 5730 5727 5724 5720 5716 5712 5709 5706 5704 5702 5700 5697 5694 5690 5686 5688 5686 5683 5681 5678 5677 5675 5673 5671 5669
5766 5763 5761 5758 5755 5752 5750 5748 5746 5744 5743 5741 5739 5737 5737 5736 5732 5729 5726 5723 5720 5717 5715 5711 5707 5705 5702 5701 5697 5694 5691 5687 5684 5684 5680 5677 5676 5673 5672 5670 5669 5666 5664
5761 5759 5756 5754 5752 5749 5746 5743 5742 5741 5739 5738 5736 5734 5731 5730 5728 5725 5723 5719 5717 5715 5712 5709 5707 5705 5703 5700 5696 5693 5688 5684 5682 5681 5678 5672 5671 5669 5668 5666 5663 5661 5658
5756 5754 5752 5750 5747 5745 5742 5739 5736 5736 5734 5733 5732 5729 5728 5725 5722 5720 5718 5714 5712 5711 5709 5707 5704 5702 5699 5696 5693 5688 5683 5679 5675 5674 5674 5669 5667 5664 5662 5660 5658 5655 5652
5750 5749 5747 5746 5743 5741 5737 5734 5730 5731 5730 5728 5726 5725 5722 5720 5717 5714 5712 5709 5706 5705 5704 5702 5698 5696 5694 5692 5689 5685 5681 5676 5672 5670 5670 5666 5663 5659 5654 5654 5652 5650 5646